Regional Weather Roundup
Issued by NWS Charleston, SC

Current Version | Previous Version | Graphics & Text | Print | Product List | Glossary On
Versions: 1 2 3 4 5 6 7 8 9 10 11 12 13 14 15 16 17 18 19 20 21 22 23 24 25 26 27 28 29 30 31 32 33 34 35 36 37 38 39 40 41 42 43 44 45 46 47 48 49 50
000 ASUS42 KCHS 201910 RWRCHS REGIONAL WEATHER ROUNDUP NATIONAL WEATHER SERVICE CHARLESTON SC 200 PM EST THU NOV 20 2014 NOTE: "FAIR" INDICATES FEW OR NO CLOUDS BELOW 12,000 FEET WITH NO SIGNIFICANT WEATHER AND/OR OBSTRUCTIONS TO VISIBILITY. NOT ALL STATIONS ARE QUALITY CONTROLLED BY THE NATIONAL WEATHER SERVICE. USE DATA WITH CAUTION...ESPECIALLY DEWPOINT OBSERVATIONS. SCZ027-030-031-034>040-042>050-202000- ...SOUTH CAROLINA... CITY SKY/WX TMP DP RH WIND PRES REMARKS N CHARLESTON MOSUNNY 64 28 25 W7G16 30.17F WATERFRONT PRK N/A 57 N/A N/A SW9G16 N/A FORT JOHNSON NOT AVBL JOHNS ISLAND CLEAR 61 34 36 S10G17 30.18F PINOPOLIS N/A 59 34 38 W14 30.08F MONCKS CORNER FAIR 64 37 36 SW13G18 30.15F SUMMERVILLE FAIR 63 32 31 SW12 30.17F BEAUFORT MCAS PTSUNNY 64 29 26 W9 30.19F BEAUFORT ARPT FAIR 61 34 36 S6 30.19F HILTON HEAD IS SUNNY 59 36 41 S9 30.20F GEORGETOWN NOT AVBL WALTERBORO CLEAR 63 23 22 SW8G18 30.18F ORANGEBURG LGT RAIN 62 33 33 W15G30 30.15F BARNWELL FAIR 64 37 36 W15G21 30.16F AIKEN FAIR 61 34 36 W16 30.17F MANNING NOT AVBL KINGSTREE NOT AVBL COLUMBIA PTSUNNY 63 34 33 SW14G23 30.12F SUMTER MOSUNNY 62 34 34 SW20G25 30.09F FLORENCE SUNNY 63 31 30 W18G26 30.09F MYRTLE BEACH SUNNY 63 28 27 W15G21 30.13F N MYRTLE BEACH SUNNY 62 30 29 W14G21 30.11F $$ GAZ063-065-086>088-099>101-113>116-118-119-134-136>141-150-202000- ...GEORGIA... CITY SKY/WX TMP DP RH WIND PRES REMARKS SAVANNAH ARPT MOSUNNY 65 27 23 SW9 30.20F HUNTER AAF SUNNY 64 30 28 SW7 30.18F FORT STEWART SUNNY 64 30 28 W8 30.20F STATESBORO NOT AVBL SYLVANIA CLEAR 64 36 34 W9 30.19F CLAXTON FAIR 64 32 29 W6 30.20F THOMSON SUNNY 64 41 43 W15G22 30.20F AUGUSTA-BUSH MOSUNNY 63 35 35 W15G23 30.16F AUGUSTA-DANIEL MOSUNNY 63 35 35 SW8 30.16F SWAINSBORO FAIR 64 41 42 W9 30.19F VIDALIA SUNNY 63 36 36 W6 30.20F ALMA SUNNY 63 29 27 VRB3 30.22F WAYCROSS SUNNY 65 32 28 W3 30.23F JESUP FAIR 64 34 32 W6 30.22F BRUNSWICK SUNNY 64 23 20 SW6 30.23F SAINT SIMONS SUNNY 61 26 26 W7 30.23F $$ SCZ027-028-034-036>038-045-046-048>050-GAZ119-141-202000- ...LAKE AND SUPPLEMENTAL COASTAL OBSERVATIONS... STATION/POSITION TIME TEMP WIND PRES WAVE SWELL AIR SEA DIR/SP/G HT/PER HT/PER/DIR (UTC) (F) (DEG/KT/KT) (MB) (FT/S) (FT/S/D) UPR LAKE MARION NOT AVBL WINYAH BAY 1800 59 250/ 10 1022.0S LAKE MURRAY 1800 57 270/ 15/ 24 1019.6F ACE BASIN NERRS 1800 59 240/ 3 1023.0F FORT PULASKI 1900 59 190/ 7/ 11 1023.0F SAPELO ISLAND NOT AVBL $$ ANZ835-935-AMZ111-154-330-350-352-354-374-450-454-472-202000- ...C-MAN AND BUOY OBSERVATIONS... STATION/POSITION TIME TEMP WIND PRES WAVE SWELL AIR SEA DIR/SP/G HT/PER HT/PER/DIR (UTC) (F) (DEG/KT/KT) (MB) (FT/S) (FT/S/D) FOLLY BEACH CMAN 1800 54 210/ 15/ 16 1023.2F BUOY 41004 1900 58 72 240/ 14/ 17 1022.1F 3/ 5 2/ 8 BUOY 41008 1900 55 64 260/ 4/ 8 1023.9F 1/ 8 2/100/ 8 5E ST. MARYS GA 1900 63 N/A 2/ 8 FRYING PAN BUOY 1900 58 65 230/ 19/ 23 1021.0F 4/ 5 BUOY 41025 1900 59 230/ 23/ 31 1017.5F 5/ 6 CAPE LOOKOUT NC 1800 55 250/ 16/ 20 1019.3F BUOY 41002 1841 67 74 270/ 16/ 19 1021.5F 2/ 8 2/ 70/ 8 BUOY 41010 1900 69 78 30/ 10/ 14 1022.3S 3/ 8 3/ 80/ 8 BUOY 41012 NOT AVBL ST AUGUSTINE FL 1900 56 360/ 11/ 12 1025.0F CAPERS NEARSHORE 1800 55 230/ 12/ 14 N/A FRIPP NEARSHORE NOT AVBL $$

USA.gov is the U.S. government's official web portal to all federal, state and local government web resources and services.